Current Version              Previous Version:    01  02  03  04  05  06  07  08  09  10  11  12  13  14  15  16  17  18  19  20  21  22  23  24  25  26  27  28  29  30  
   31  32  33  34  35  36  37  38  39  40  41  42  43  44  45  46  47  48  49  50  51  52  53  54  55  56  57  58  59  60  

[Printable]
102
ASUS44 KLUB 311410
RWRTX
WEST TEXAS WEATHER ROUNDUP
NATIONAL WEATHER SERVICE LUBBOCK TX
900 AM CDT FRI OCT 31 2014

NOTE: "FAIR" INDICATES FEW OR NO CLOUDS BELOW 12,000 FEET WITH NO
SIGNIFICANT WEATHER AND/OR OBSTRUCTIONS TO VISIBILITY.

TXZ004-006>008-010-012-014-016-OKZ002-311500-
TEXAS PANHANDLE/OKLAHOMA PANHANDLE

CITY           SKY/WX    TMP DP  RH WIND       PRES   REMARKS
AMARILLO       CLEAR     39  32  76 N6        30.46R WCI  35
BORGER         CLEAR     41  30  65 NE8       30.47R
CANADIAN       CLEAR     41  37  83 N6        30.47R
DALHART        PTCLDY    40  30  67 NE8       30.47R WCI  34
DUMAS            N/A     33  28  81 NW3       30.47R
GUYMON         CLEAR     37  32  82 N6        30.48R WCI  32
HEREFORD       PTCLDY    37  33  86 MISG      30.45R
PAMPA          CLEAR     39  33  78 NE7       30.46R WCI  34
PERRYTON       CLEAR     37  33  84 NE8       30.47R WCI  31
$$

TXZ026-029-035-045-048-311500-
SOUTHERN PANHANDLE/SOUTH PLAINS/ROLLING PLAINS

CITY           SKY/WX    TMP DP  RH WIND       PRES   REMARKS
CHILDRESS      SUNNY     48  34  58 N8        30.44R
SEMINOLE       CLEAR     47  32  56 NE6       30.41R
LUBBOCK        CLEAR     48  32  53 NE12      30.41R
PLAINVIEW      CLEAR     45  32  60 E8        30.42R
SNYDER         SUNNY     50  33  53 NE12      30.39R
$$

TXZ052-054-060>062-072-078-127-140-154-169-311500-
PERMIAN BASIN/CONCHO VALLEY/BIG COUNTRY/EDWARDS PLATEAU

CITY           SKY/WX    TMP DP  RH WIND       PRES   REMARKS
ABILENE        SUNNY     50  37  61 N8        30.38R
BIG SPRING     SUNNY     54  34  47 NE9       30.40R
BRADY          SUNNY     57  41  54 N9        30.32R
BROWNWOOD      SUNNY     57  39  51 N5        30.34R
JUNCTION       SUNNY     62  43  49 NE12      30.31R
MIDLAND        SUNNY     50  36  58 N6        30.38R
ODESSA         SUNNY     50  35  56 NE8       30.38R
SAN ANGELO     SUNNY     59  38  45 NE12      30.34R
SONORA         SUNNY     61  43  51 NE10      30.36R
SWEETWATER     SUNNY     51  35  55 N7        30.41R
WINK           PTCLDY    51  36  56 N7        30.37R
$$

TXZ055-058-074-075-080-082-311500-
FAR WEST/SOUTHWEST MOUNTAINS/TRANS PECOS

CITY           SKY/WX    TMP DP  RH WIND       PRES   REMARKS
ALPINE         CLOUDY    57  52  85 NE9       30.43R
DRYDEN           N/A     67  48  50 NE10G21   30.30R
EL PASO        PTCLDY    58  46  64 E5        30.32R
FORT STOCKTON  MOSUNNY   59  48  67 E8        30.36R
GUADALUPE PASS CLEAR     51  30  44 NE33G39   30.40R
MARFA          CLOUDY    55  52  88 NE14      30.39R
PECOS          PTCLDY    55  41  58 N9        30.37R
PRESIDIO       FAIR      64  53  65 E6        30.29R
$$

TXZ014-016-019-021>030-083-311500
TEXAS TECH WEST TEXAS MESONET/TEXAS PANHANDLE/NORTHERN SOUTH PLAINS

CITY           SKY/WX    TMP DP  RH WIND       PRES   REMARKS
ABERNATHY 5ENE   N/A     46  33  61 NE12      30.43R
AMARILLO 9NNE    N/A     36  29  77 CALM      30.46R
AMARILLO 7SSE    N/A     41  34  75 NE7       30.46R
AMHERST 1NE      N/A     41  31  69 NE3       30.43R
BOOTLEG 11WNW    N/A     42  28  56 NE3       30.47R
CANADIAN 6E      N/A     41  34  76 N7        30.46R
CAPROCK CYN SP   N/A     49  33  53 N6        30.45R
CHILDRESS 2NNE   N/A     46  34  62 NW8       30.43R
CLARENDON 2WSW   N/A     44  32  63 N8        30.45R
CLAUDE 12SW      N/A     41  33  73 N8        30.45R
DIMMITT 2NE      N/A     39  32  77 N5        30.44R
FLOYDADA 2NNE    N/A     44  33  64 NE8       30.42R
FRIONA 2NE       N/A     37  31  77 N1        30.46R
GOODLETT 3W      N/A     49  35  57 N12       30.42R
HART 3N          N/A     41  32  70 NE5       30.44R
HEREFORD 2NW     N/A     39  31  72 NE3       30.44R
MCLEAN 1E        N/A     42  33  71 N10       30.42R
MEMPHIS 1NE      N/A     47  34  59 N9        30.43R
MULESHOE 2SSW    N/A     35  30  83 W1        30.44R
OLTON 6S         N/A     42  31  67 NE6       30.43R
PALO DURO SP     N/A     43  31  62 N5        30.47R
PAMPA 2E         N/A     39  34  82 N10       30.45R WCI  32
PLAINVIEW 1S     N/A     44  32  61 NE9       30.43R
SILVERTON 7ESE   N/A     48  32  54 NE8       30.44R
TULIA 2ENE       N/A     42  33  70 NE5       30.44R
TURKEY 2WSW      N/A     47  33  58 NW6       30.43R
UMBARGER 3NNE    N/A     40  31  71 NE2       30.46R
$$

TXZ033>036-039>041-045>048-311500
TEXAS TECH WEST TEXAS MESONET/SOUTH PLAINS

CITY           SKY/WX    TMP DP  RH WIND       PRES   REMARKS
AIKEN 3WSW       N/A     43  33  66 NE6       30.45R
ANTON 6SSW       N/A     42  33  70 N5        30.43R
BROWNFIELD 2S    N/A     47  31  54 NE9       30.41R
DENVR CTY 7WNW   N/A     43  32  65 N5        30.41R
GAIL 2ESE        N/A     49  36  61 N6        30.39R
LAMESA 2SE       N/A     48  33  57 N5        30.40R
LEVELLAND 4S     N/A     44  31  60 N7        30.42R
LUBBOCK 3WNW     N/A     46  32  59 NE5       30.43R
MORTON 1ENE      N/A     42  32  66 NE6       30.42R
ODONNELL 1N      N/A     49  31  49 NE10      30.40R
PLAINS 3N        N/A     44  31  59 N6        30.42R
RALLS 1SE        N/A     48  32  54 NE12      30.43R
REESE CENTER     N/A     42  32  70 N7        30.42R
SEMINOLE 2NNE    N/A     47  32  55 N8        30.41R
SLATON 2NE       N/A     48  32  53 NE9       30.42R
SNYDER 3E        N/A     50  34  53 N14       30.38R
SUNDOWN 8SW      N/A     43  32  64 N6        30.42R
TAHOKA 3NNE      N/A     49  32  51 NE10      30.40R
WOLFFORTH 6SSW   N/A     44  34  67 N5        30.42R
$$

TXZ031-032-036>038-042>044-311500-
TEXAS TECH WEST TEXAS MESONET/ROLLING PLAINS

CITY           SKY/WX    TMP DP  RH WIND       PRES   REMARKS
ASPERMONT 3NE    N/A     47  37  67 W2        30.41R
FLUVANNA 3WNW    N/A     51  33  49 NE12      30.39R
GRAHAM 5SSW      N/A     51  31  47 NE18      30.39R
GUTHRIE 10WSW    N/A     48  33  55 N9        30.42R
HASKELL 1NW      N/A     50  35  56 N7        30.40R
JAYTON 1SSE      N/A     50  34  54 N8        30.41R
KNOX CITY 3NW    N/A     51  34  52 N8        30.41R
LK A HENRY 1NW   N/A     51  33  50 NE8       30.41R
NORTHFIELD 1S    N/A     50  34  55 N6        30.43R
ODELL 4ENE       N/A     50  37  60 N14       30.42R
PADUCAH 10SW     N/A     48  35  59 N8        30.42R
POST 1NE         N/A     50  33  52 N8        30.41R
RRING SPRGS 3N   N/A     49  34  57 N8        30.43R
SEYMOUR 3NW      N/A     50  36  58 N10       30.40R
SPUR 1W          N/A     50  33  50 NE14      30.40R
WEINERT 2NNE     N/A     51  37  57 NE10      30.41R
WHITE RVR 6NE    N/A     49  32  52 N10       30.42R
$$

TXZ052-054-060>062-072-078-127-140-154-169-311500-
TEXAS TECH WEST TEXAS MESONET/PERMIAN BASIN/
CONCHO VALLEY/BIG COUNTRY/EDWARDS PLATEAU

CITY           SKY/WX    TMP DP  RH WIND       PRES   REMARKS
COYANOSA 2N      N/A     61  40  45 NE7       30.37R
JUNCTION 1SSW    N/A     62  45  53 NE6       30.32R
MERTZON 3NNE     N/A     58  37  46 NE5       30.37R
SAN ANGELO 7NW   N/A     60  34  36 NE8       30.35R
STRLNG CT 4WSW   N/A     54  37  53 NW2       30.38R
ST LAWRNCE 5SW   N/A     52  36  54 NE8       30.36R
SWEETWATR 11SW   N/A     51  36  56 NE7       30.39R
WALL 1E          N/A     55  40  57 NE2       30.35R
$$

TXZ055-058-074-075-080-082-311500-
TEXAS TECH WEST TEXAS MESONET/FAR WEST/SOUTHWEST MOUNTAINS/TRANS PECOS

CITY           SKY/WX    TMP DP  RH WIND       PRES   REMARKS
PRSMN GAP BBNP   N/A     65  55  69 N22       30.31R
GUADLPE MTN NP   N/A     51  28  41 NE10      30.46R
$$